• In Romania
  • List of Countries
  • For 7 days
  • Water Temperature
  • Satellite Maps
  • Weather Map
  • Weather Widgets
  • user-avatar
    Login

    Hourly Weather Natitingou

    Today, 18 February, Sunday

    Time Temperature Precipitation Wind Pressure Humidity
    00:00 +28°C° 0 mm 1 mps 716 mmHg 13%
    01:00 +28°C° 0 mm 2 mps 715 mmHg 13%
    02:00 +27°C° 0 mm 2 mps 715 mmHg 13%
    03:00 +27°C° 0 mm 2 mps 715 mmHg 13%
    04:00 +26°C° 0 mm 2 mps 715 mmHg 13%
    05:00 +26°C° 0 mm 2 mps 715 mmHg 13%
    06:00 +25°C° 0 mm 2 mps 716 mmHg 14%
    07:00 +28°C° 0 mm 2 mps 716 mmHg 15%
    08:00 +30°C° 0 mm 2 mps 717 mmHg 16%
    09:00 +32°C° 0 mm 2 mps 717 mmHg 16%
    10:00 +36°C° 0 mm 2 mps 717 mmHg 15%
    11:00 +38°C° 0 mm 2 mps 717 mmHg 14%
    12:00 +39°C° 0 mm 2 mps 717 mmHg 17%
    13:00 +40°C° 0 mm 1 mps 716 mmHg 15%
    14:00 +42°C° 0 mm 1 mps 716 mmHg 14%
    15:00 +40°C° 0 mm 0 mps 715 mmHg 12%
    16:00 +38°C° 0 mm 0 mps 715 mmHg 14%
    17:00 +35°C° 0 mm 0 mps 714 mmHg 15%
    18:00 +33°C° 0 mm 0 mps 714 mmHg 17%
    19:00 +34°C° 0 mm 1 mps 714 mmHg 17%
    20:00 +33°C° 0 mm 1 mps 715 mmHg 18%
    21:00 +32°C° 0 mm 1 mps 715 mmHg 18%
    22:00 +31°C° 0 mm 1 mps 715 mmHg 19%
    23:00 +31°C° 0 mm 1 mps 715 mmHg 20%

    Tomorrow, 19 February, Monday

    Time Temperature Precipitation Wind Pressure Humidity
    00:00 +31°C° 0 mm 1 mps 715 mmHg 21%
    01:00 +30°C° 0 mm 1 mps 715 mmHg 27%
    02:00 +29°C° 0 mm 1 mps 715 mmHg 33%
    03:00 +28°C° 0 mm 1 mps 715 mmHg 39%
    04:00 +28°C° 0 mm 1 mps 715 mmHg 47%
    05:00 +27°C° 0 mm 1 mps 715 mmHg 54%
    06:00 +27°C° 0 mm 1 mps 716 mmHg 61%
    07:00 +29°C° 0 mm 2 mps 716 mmHg 58%
    08:00 +30°C° 0 mm 2 mps 717 mmHg 54%
    09:00 +33°C° 0 mm 3 mps 717 mmHg 51%
    10:00 +35°C° 0 mm 2 mps 717 mmHg 42%
    11:00 +38°C° 0 mm 2 mps 717 mmHg 33%
    12:00 +40°C° 0 mm 1 mps 717 mmHg 24%
    13:00 +41°C° 0 mm 1 mps 716 mmHg 22%
    14:00 +42°C° 0 mm 1 mps 715 mmHg 20%
    15:00 +40°C° 0 mm 0 mps 715 mmHg 18%
    16:00 +38°C° 0 mm 0 mps 714 mmHg 20%
    17:00 +39°C° 0 mm 1 mps 714 mmHg 22%
    18:00 +36°C° 0 mm 1 mps 714 mmHg 24%
    19:00 +35°C° 0 mm 1 mps 714 mmHg 26%
    20:00 +35°C° 0 mm 1 mps 715 mmHg 27%
    21:00 +34°C° 0 mm 1 mps 715 mmHg 29%
    22:00 +33°C° 0 mm 1 mps 715 mmHg 31%
    23:00 +33°C° 0 mm 1 mps 715 mmHg 33%

    Day after tomorrow, 20 February, Tuesday

    Time Temperature Precipitation Wind Pressure Humidity
    00:00 +32°C° 0 mm 1 mps 715 mmHg 35%
    01:00 +32°C° 0 mm 1 mps 715 mmHg 36%
    02:00 +32°C° 0 mm 1 mps 714 mmHg 38%
    03:00 +31°C° 0 mm 1 mps 714 mmHg 39%
    04:00 +31°C° 0.2 mm 1 mps 714 mmHg 42%
    05:00 +31°C° 0.2 mm 2 mps 715 mmHg 44%
    06:00 +30°C° 0.2 mm 2 mps 715 mmHg 47%
    07:00 +31°C° 0 mm 2 mps 716 mmHg 47%
    08:00 +33°C° 0 mm 3 mps 716 mmHg 47%
    09:00 +33°C° 0 mm 3 mps 717 mmHg 47%
    10:00 +35°C° 0 mm 3 mps 716 mmHg 41%
    11:00 +37°C° 0 mm 3 mps 716 mmHg 36%
    12:00 +39°C° 0 mm 3 mps 716 mmHg 31%
    13:00 +39°C° 0 mm 2 mps 715 mmHg 29%
    14:00 +39°C° 0 mm 2 mps 714 mmHg 28%
    15:00 +40°C° 0 mm 1 mps 713 mmHg 26%
    16:00 +39°C° 0 mm 1 mps 713 mmHg 27%
    17:00 +37°C° 0 mm 1 mps 713 mmHg 28%
    18:00 +36°C° 0 mm 1 mps 713 mmHg 30%
    19:00 +35°C° 0.1 mm 1 mps 714 mmHg 32%
    20:00 +34°C° 0.1 mm 1 mps 714 mmHg 34%
    21:00 +33°C° 0.1 mm 1 mps 714 mmHg 36%
    22:00 +33°C° 0.1 mm 1 mps 714 mmHg 38%
    23:00 +32°C° 0.1 mm 1 mps 714 mmHg 39%

    21 February, Wednesday

    Time Temperature Precipitation Wind Pressure Humidity
    00:00 +32°C° 0.1 mm 1 mps 714 mmHg 40%
    01:00 +31°C° 0 mm 2 mps 714 mmHg 43%
    02:00 +31°C° 0 mm 2 mps 714 mmHg 45%
    03:00 +30°C° 0 mm 3 mps 713 mmHg 48%
    04:00 +30°C° 0.2 mm 3 mps 714 mmHg 51%
    05:00 +29°C° 0.2 mm 3 mps 714 mmHg 55%
    06:00 +29°C° 0.2 mm 3 mps 714 mmHg 58%
    07:00 +30°C° 0 mm 4 mps 715 mmHg 56%
    08:00 +32°C° 0 mm 4 mps 715 mmHg 53%
    09:00 +33°C° 0 mm 4 mps 716 mmHg 50%
    10:00 +34°C° 0 mm 4 mps 716 mmHg 45%
    11:00 +36°C° 0 mm 4 mps 715 mmHg 40%
    12:00 +38°C° 0 mm 4 mps 715 mmHg 35%
    13:00 +38°C° 0 mm 3 mps 714 mmHg 33%
    14:00 +38°C° 0 mm 3 mps 713 mmHg 32%
    15:00 +38°C° 0 mm 3 mps 712 mmHg 31%
    16:00 +38°C° 0 mm 3 mps 712 mmHg 32%
    17:00 +37°C° 0 mm 2 mps 713 mmHg 33%
    18:00 +36°C° 0 mm 2 mps 713 mmHg 34%
    19:00 +35°C° 0.3 mm 2 mps 713 mmHg 37%
    20:00 +34°C° 0.3 mm 2 mps 714 mmHg 41%
    21:00 +32°C° 0.3 mm 2 mps 714 mmHg 44%
    22:00 +32°C° 0 mm 2 mps 714 mmHg 46%
    23:00 +31°C° 0 mm 3 mps 714 mmHg 48%

    22 February, Thursday

    Time Temperature Precipitation Wind Pressure Humidity
    00:00 +31°C° 0 mm 3 mps 714 mmHg 50%
    01:00 +30°C° 0.8 mm 3 mps 714 mmHg 54%
    02:00 +29°C° 0.8 mm 4 mps 713 mmHg 59%
    03:00 +28°C° 0.8 mm 4 mps 713 mmHg 64%
    04:00 +28°C° 0 mm 4 mps 713 mmHg 64%
    05:00 +28°C° 0 mm 4 mps 713 mmHg 65%
    06:00 +28°C° 0 mm 4 mps 714 mmHg 66%
    07:00 +29°C° 0 mm 4 mps 714 mmHg 62%
    08:00 +30°C° 0 mm 4 mps 715 mmHg 59%
    09:00 +32°C° 0 mm 4 mps 715 mmHg 55%
    10:00 +33°C° 0 mm 4 mps 715 mmHg 50%
    11:00 +35°C° 0 mm 4 mps 715 mmHg 46%
    12:00 +36°C° 0 mm 4 mps 714 mmHg 41%
    13:00 +36°C° 0 mm 3 mps 714 mmHg 39%
    14:00 +37°C° 0 mm 3 mps 713 mmHg 38%
    15:00 +37°C° 0 mm 3 mps 712 mmHg 36%
    16:00 +36°C° 0 mm 3 mps 712 mmHg 37%
    17:00 +36°C° 0 mm 2 mps 712 mmHg 38%
    18:00 +35°C° 0 mm 2 mps 712 mmHg 39%
    19:00 +34°C° 0.2 mm 2 mps 713 mmHg 43%
    20:00 +32°C° 0.2 mm 2 mps 713 mmHg 48%
    21:00 +31°C° 0.2 mm 2 mps 714 mmHg 52%
    22:00 +30°C° 0.3 mm 2 mps 714 mmHg 56%
    23:00 +30°C° 0.3 mm 2 mps 714 mmHg 59%

    23 February, Friday

    Time Temperature Precipitation Wind Pressure Humidity
    00:00 +29°C° 0.3 mm 2 mps 713 mmHg 63%
    01:00 +29°C° 0 mm 3 mps 713 mmHg 63%
    02:00 +29°C° 0 mm 3 mps 713 mmHg 62%
    03:00 +28°C° 0 mm 4 mps 713 mmHg 62%
    04:00 +28°C° 0.1 mm 3 mps 713 mmHg 65%
    05:00 +28°C° 0.1 mm 2 mps 714 mmHg 67%
    06:00 +27°C° 0.1 mm 1 mps 714 mmHg 69%
    07:00 +28°C° 0.2 mm 2 mps 714 mmHg 64%
    08:00 +30°C° 0.2 mm 2 mps 715 mmHg 59%
    09:00 +31°C° 0.2 mm 3 mps 716 mmHg 55%
    10:00 +34°C° 0 mm 2 mps 715 mmHg 48%
    11:00 +36°C° 0 mm 2 mps 715 mmHg 42%
    12:00 +37°C° 0 mm 2 mps 715 mmHg 35%
    13:00 +37°C° 0 mm 2 mps 714 mmHg 34%
    14:00 +36°C° 0 mm 1 mps 714 mmHg 33%
    15:00 +37°C° 0 mm 1 mps 713 mmHg 32%
    16:00 +36°C° 0 mm 1 mps 713 mmHg 34%
    17:00 +35°C° 0 mm 1 mps 713 mmHg 36%
    18:00 +35°C° 0 mm 2 mps 713 mmHg 38%
    19:00 +34°C° 0.1 mm 2 mps 714 mmHg 42%
    20:00 +32°C° 0.1 mm 2 mps 714 mmHg 46%
    21:00 +31°C° 0.1 mm 2 mps 715 mmHg 50%
    22:00 +31°C° 0.4 mm 1 mps 715 mmHg 53%
    23:00 +30°C° 0.4 mm 1 mps 714 mmHg 56%
    Show more